[[{"header":{"parameterUnit":"m.s-1","parameterCategory":1,"la1":30.2992,"la2":30.254,"lo1":-89.0895,"lo2":-89.0443,"dy":0.0025,"dx":0.0025,"nx":19,"ny":19,"refTime":"2026-03-24T21:00:00:Z","depth":0,"parameterNumber":2,"parameterNumberName":"U-component_of_WINDS"},"data":[0,0,0,-2.9476,-2.9477,-2.9517,-2.9518,-2.9587,-2.9588,0,0,0,0,0,0,0,0,0,0,0,-2.9473,-2.9473,-2.9476,-2.9477,-2.9517,-2.9518,-2.9587,-2.9588,0,0,0,0,0,0,0,0,0,0,0,-2.9472,-2.9473,-2.9474,-2.9477,-2.9517,-2.9518,-2.9587,-2.955,0,0,0,0,0,0,0,0,0,0,-2.9508,-2.9513,-2.9473,-2.9474,-2.9478,-2.9517,-2.9518,-2.9548,-2.9553,-2.9576,0,-2.9597,0,-2.9594,-2.9594,-2.9594,0,0,0,-2.9471,-2.9509,-2.9513,-2.9474,-2.9478,-2.9517,-2.9498,-2.9551,-2.9556,-2.9582,-2.9598,-2.96,-2.9595,-2.9594,-2.9595,-2.9749,-2.975,0,0,-2.9469,-2.9484,-2.9509,-2.9516,-2.9509,-2.9496,-2.9499,-2.9553,-2.9572,-2.9598,-2.9601,-2.9596,-2.9595,-2.9595,-2.9748,-2.9749,0,0,0,-2.9467,-2.9483,-2.9485,-2.9514,-2.952,-2.9498,-2.9501,-2.957,-2.9569,-2.9602,-2.9597,-2.9595,-2.9596,-2.9747,-2.9748,-2.9813,0,0,0,-2.9465,-2.9482,-2.9484,-2.9494,-2.9519,-2.9545,-2.9516,-2.9565,-2.9571,-2.9597,-2.9595,-2.9597,-2.9746,-2.9748,-2.9809,-2.984,0,0,0,-2.9467,-2.9482,-2.9491,-2.9495,-2.9513,-2.9543,-2.9546,-2.9566,-2.9568,-2.9594,-2.9597,-2.9745,-2.9747,-2.9805,-2.9833,-2.9885,0,0,0,-2.9474,-2.9546,-2.9492,-2.9572,-2.9513,-2.9584,-2.9545,-2.9597,-2.9627,-2.9596,-2.9746,-2.9748,-2.9804,-2.9829,-2.9881,-2.993,-2.9952,0,0,-2.9573,-2.9558,-2.9604,-2.9557,-2.9642,-2.9576,-2.9672,-2.9684,-2.9672,-2.9725,-2.9728,-2.981,-2.9833,-2.9884,-3.0075,-3.0093,0,0,0,-2.9641,-2.9674,-2.9693,-2.9723,-2.9736,-2.975,-2.9747,-2.9753,-2.9797,-2.9702,-2.9844,-2.9857,-2.9886,-2.9908,-2.9924,-2.9948,-2.976,-2.976,-2.9759,-2.98,-2.9785,-2.9861,-2.9851,-2.9882,-2.9881,-2.9905,-2.9913,-2.9885,-2.992,-2.9934,-3.0052,-3.0079,-3.009,-3.0116,-2.9961,-2.9961,-2.9961,-2.9961,-2.9943,-2.9987,-2.9956,-3.0018,-3.0003,-3.0055,-3.0061,-3.0041,-3.0089,-3.0038,-3.0064,-3.0007,-3.011,-3.0132,-2.9966,-2.9965,-2.9965,-2.9964,-2.9964,-3.0043,-3.0062,-3.007,-3.0116,-3.0154,-3.0144,-3.0193,-3.0178,-3.0163,-3.0189,-3.0203,-3.0202,-3.0198,-3.0198,-3.0198,-3.0198,-3.0199,-3.0199,-3.0199,-3.0142,-3.0149,-3.0192,-3.0217,-3.0237,-3.0263,-3.0269,-3.0289,-3.0308,-3.0293,-3.0293,-3.0264,-3.0124,-3.0087,-3.0205,-3.0204,-3.0204,-3.0203,-3.0203,-3.0286,-3.0253,-3.0318,-3.0339,-3.0371,-3.0412,-3.0395,-3.0439,-3.0454,-3.048,-3.0449,-3.0348,-3.0331,-3.0319,-3.0289,-3.0452,-3.0452,-3.0452,-3.0452,-3.0368,-3.0361,-3.0426,-3.0462,-3.0495,-3.0489,-3.0568,-3.0577,-3.0581,-3.0591,-3.0566,-3.0527,-3.0515,-3.0505,-3.0489,-3.046,-3.0663,-3.0663,-3.0663,-3.0456,-3.0452,-3.0519,-3.0524,-3.055,-3.0574,-3.0649,-3.0693,-3.0691,-3.0672,-3.0598,-3.0589,-3.0525,-3.0504,-3.0476,-3.0452,-3.0399,0,0]},{"header":{"parameterUnit":"m.s-1","parameterCategory":1,"la1":30.2992,"la2":30.254,"lo1":-89.0895,"lo2":-89.0443,"dy":0.0025,"dx":0.0025,"nx":19,"ny":19,"refTime":"2026-03-24T21:00:00:Z","depth":0,"parameterNumber":3,"parameterNumberName":"V-component_of_WINDS"},"data":[0,0,0,2.4954,2.4952,2.4892,2.4892,2.4796,2.4795,0,0,0,0,0,0,0,0,0,0,0,2.4964,2.4963,2.4954,2.4952,2.4892,2.4892,2.4796,2.4795,0,0,0,0,0,0,0,0,0,0,0,2.4964,2.4963,2.4962,2.4952,2.4892,2.4892,2.4796,2.4848,0,0,0,0,0,0,0,0,0,0,2.4909,2.4911,2.4963,2.4962,2.4952,2.4892,2.4892,2.485,2.4845,2.4817,0,2.4792,0,2.4792,2.4788,2.4787,0,0,0,2.4957,2.4916,2.4908,2.4962,2.4951,2.4892,2.4921,2.4847,2.4841,2.4809,2.4791,2.4788,2.4791,2.4787,2.4786,2.4617,2.4616,0,0,2.4961,2.4947,2.4912,2.4903,2.4915,2.4922,2.4919,2.4844,2.4822,2.4791,2.4786,2.4789,2.4786,2.4785,2.4618,2.4616,0,0,0,2.4967,2.4949,2.4943,2.4906,2.4897,2.4921,2.4916,2.4825,2.4825,2.4785,2.4788,2.4786,2.4784,2.4619,2.4617,2.4554,0,0,0,2.4969,2.4953,2.4944,2.4935,2.4898,2.4861,2.4899,2.483,2.4822,2.4789,2.4786,2.4783,2.462,2.4618,2.4558,2.4524,0,0,0,2.497,2.4953,2.4942,2.4935,2.4909,2.4863,2.4858,2.4829,2.4823,2.4787,2.4783,2.4621,2.4618,2.4562,2.4531,2.4476,0,0,0,2.4966,2.4884,2.4941,2.4851,2.4909,2.4826,2.4859,2.4796,2.4757,2.4785,2.462,2.4617,2.4563,2.4535,2.448,2.4426,2.4403,0,0,2.4855,2.487,2.4819,2.4868,2.4771,2.4836,2.4729,2.4704,2.4711,2.4647,2.4643,2.4557,2.4531,2.4477,2.4282,2.4264,0,0,0,2.4778,2.4741,2.4718,2.4683,2.4666,2.4647,2.4642,2.4633,2.458,2.4677,2.4523,2.4509,2.4477,2.4452,2.4436,2.4409,2.4606,2.4606,2.4606,2.4598,2.4616,2.4531,2.4542,2.4508,2.4505,2.4478,2.4465,2.4489,2.4453,2.4433,2.4314,2.4283,2.4272,2.4244,2.4408,2.4408,2.4408,2.4407,2.4435,2.4384,2.4424,2.4356,2.4374,2.4316,2.4311,2.4331,2.4278,2.4329,2.4302,2.4355,2.4251,2.4227,2.4403,2.4404,2.4404,2.4405,2.4405,2.4317,2.4296,2.429,2.4243,2.4205,2.4218,2.4167,2.4185,2.4201,2.4175,2.4155,2.4156,2.4158,2.4165,2.4165,2.4164,2.4164,2.4163,2.4163,2.4195,2.4192,2.4148,2.4125,2.4107,2.4084,2.4083,2.4063,2.4046,2.4063,2.4063,2.409,2.424,2.4275,2.4157,2.4158,2.4159,2.4159,2.416,2.4019,2.4063,2.3995,2.3976,2.3953,2.3913,2.3939,2.3899,2.3886,2.386,2.3895,2.4003,2.4018,2.4031,2.406,2.3893,2.3893,2.3893,2.3893,2.3917,2.3929,2.3865,2.3835,2.3807,2.3825,2.3745,2.3744,2.3749,2.3742,2.3769,2.3811,2.3823,2.3831,2.3848,2.3876,2.3665,2.3665,2.3665,2.3809,2.382,2.3749,2.3759,2.3743,2.3727,2.3653,2.3614,2.3629,2.3656,2.3736,2.3746,2.3813,2.3835,2.386,2.3885,2.3937,0,0]}]]